This demonstration page uses our WeatherBlox Daily Observations layout. Learn more.

Left ArrowRight Arrow

39.92423, -83.80882

Hourly Observations for February 10, 2021

Temp ( °F °C ) Dew Point ( °F °C ) Humidity (%) Winds ( mph kmh ) Pressure ( in mb ) Visibility ( mi km ) Precip ( " mm )
12:56 am 00:56 Clear 14 -10 11 -11.7 88 88 Calm 30.40 1029 10 16 0.00 0.00
1:56 am 01:56 Clear 12 -11.1 10 -12.2 92 92 NE 5 7 30.39 1029 10 16 0.00 0.00
2:56 am 02:56 Clear 14 -10 12 -11.1 92 92 NNE 7 11 30.39 1029 10 16 0.00 0.00
3:56 am 03:56 Clear 14 -10 11 -11.7 88 88 NE 8 13 30.40 1029 10 16 0.00 0.00
4:56 am 04:56 Mostly Cloudy 15 -9.4 11 -11.7 84 84 NE 13 20 30.39 1029 10 16 0.00 0.00
5:56 am 05:56 Mostly Clear 15 -9.4 10 -12.2 80 80 ENE 9 15 30.40 1029 10 16 0.00 0.00
6:56 am 06:56 Mostly Clear 15 -9.4 10 -12.2 80 80 ENE 12 19 30.39 1029 10 16 0.00 0.00
7:54 am 07:54 Cloudy 16 -9 10 -12 79 79 ENE 7 11 30.45 1031 10 16 0.00 0.00
7:56 am 07:56 Cloudy 15 -9.4 10 -12.2 80 80 ENE 9 15 30.40 1030 10 16 0.00 0.00
8:11 am 08:11 Cloudy 16 -9 10 -12 79 79 NE 13 20 30.42 1030 10 16 0.00 0.00
8:56 am 08:56 Cloudy 16 -8.9 11 -11.7 80 80 ENE 12 19 30.37 1029 10 16 0.00 0.00
9:56 am 09:56 Cloudy 17 -8.3 11 -11.7 77 77 E 10 17 30.37 1028 10 16 0.00 0.00
10:56 am 10:56 Cloudy with Light Snow 18 -7.8 12 -11.1 77 77 E 10 17 30.36 1028 9 14 0.00 0.00
11:45 am 11:45 Cloudy with Light Snow 19 -7 14 -10 79 79 ENE 9 15 30.39 1029 2 3 0.00 0.00
11:56 am 11:56 Cloudy with Light Snow 18 -7.8 14 -10 84 84 ENE 12 19 30.36 1028 2 2 0.00 0.00
12:33 pm 12:33 Cloudy with Light Snow 19 -7 16 -9 86 86 ENE 9 15 30.37 1028 1 2 0.00 0.00
12:45 pm 12:45 Cloudy with Light Snow 18 -8 16 -9 93 93 ENE 9 15 30.36 1028 1 1 0.00 0.00
12:52 pm 12:52 Cloudy with Light Snow 19 -7 16 -9 86 86 NE 8 13 30.35 1028 1 1 0.00 0.00
12:56 pm 12:56 Cloudy with Light Snow 19 -7.2 16 -8.9 88 88 NE 8 13 30.32 1027 1 1 0.00 0.00
1:06 pm 13:06 Cloudy with Light Snow 18 -8 16 -9 93 93 NE 9 15 30.34 1027 1 2 0.00 0.00
1:13 pm 13:13 Cloudy with Light Snow 19 -7 18 -8 93 93 ENE 10 17 30.33 1027 1 1 0.00 0.00
1:21 pm 13:21 Cloudy with Light Snow 19 -7 16 -9 86 86 NE 9 15 30.33 1027 1 2 0.00 0.00
1:37 pm 13:37 Cloudy with Light Snow 19 -7 16 -9 86 86 NE 10 17 30.32 1027 2 3 0.00 0.00
1:56 pm 13:56 Cloudy with Light Snow 19 -7.2 16 -8.9 88 88 NE 12 19 30.26 1025 3 5 0.00 0.00
2:56 pm 14:56 Cloudy with Light Snow 19 -7.2 16 -8.9 88 88 ENE 12 19 30.24 1024 7 11 0.00 0.00
3:37 pm 15:37 Cloudy with Light Snow 19 -7 16 -9 86 86 NE 9 15 30.30 1026 9 14 0.00 0.00
3:56 pm 15:56 Cloudy with Light Snow 20 -6.7 16 -8.9 85 85 NE 12 19 30.25 1025 9 14 0.00 0.00
4:16 pm 16:16 Cloudy with Light Snow 19 -7 16 -9 86 86 NE 13 20 30.26 1025 3 4 0.00 0.00
4:22 pm 16:22 Cloudy with Light Snow 19 -7 18 -8 93 93 NE 9 15 30.27 1025 2 2 0.00 0.00
4:37 pm 16:37 Cloudy with Light Snow 19 -7 18 -8 93 93 NE 12 19 30.26 1025 1 2 0.00 0.00
4:56 pm 16:56 Cloudy with Light Snow 19 -7.2 18 -7.8 96 96 NNE 9 15 30.24 1024 1 2 0.00 0.00
5:22 pm 17:22 Cloudy with Light Snow 19 -7 18 -8 93 93 NNE 10 17 30.27 1025 1 2 0.00 0.00
5:30 pm 17:30 Cloudy with Light Snow 19 -7 18 -8 93 93 NNE 10 17 30.27 1025 1 1 0.00 0.00
6:22 pm 18:22 Cloudy with Light Snow 18 -8 18 -8 100 100 NNE 10 17 30.28 1025 1 2 0.00 0.00
6:28 pm 18:28 Cloudy with Light Snow 18 -8 18 -8 100 100 NNE 12 19 30.28 1025 1 2 0.00 0.00
6:32 pm 18:32 Cloudy with Light Snow 18 -8 18 -8 100 100 NNE 10 17 30.28 1025 2 3 0.00 0.00
6:44 pm 18:44 Cloudy with Light Snow 19 -7 18 -8 93 93 NNE 10 17 30.27 1025 3 5 0.00 0.00
6:56 pm 18:56 Cloudy with Light Snow 19 -7.2 17 -8.3 92 92 NNE 10 17 30.25 1024 5 8 0.00 0.00
7:56 pm 19:56 Cloudy 19 -7.2 16 -8.9 88 88 NNE 10 17 30.25 1025 10 16 0.00 0.00
8:56 pm 20:56 Mostly Cloudy 18 -7.8 16 -8.9 92 92 N 10 17 30.27 1025 10 16 0.00 0.00
9:56 pm 21:56 Mostly Cloudy 18 -7.8 15 -9.4 88 88 NNE 10 17 30.27 1025 10 16 0.00 0.00
10:56 pm 22:56 Mostly Cloudy 17 -8.3 15 -9.4 92 92 NE 8 13 30.26 1025 10 16 0.00 0.00
11:56 pm 23:56 Mostly Cloudy 18 -7.8 15 -9.4 88 88 NNE 14 22 30.26 1025 10 16 0.00 0.00

Powered by AerisWeather